www.pogodaiklimat.ru

Погода и климат >> Архив погоды >> Бразилия >> Мату-Гросу >> Куяба


ПОГОДА в Куябе

  • Прогноз погоды в Куябе
  • Монитор погоды в Куябе

АРХИВ ПОГОДЫ в Куябе

Время (UTC), дата Ветер
(напр.,м/с)
 
Видим.   Явления Облачность Т
(С)
Тd
(С)
f
(%)
Тe
(С)
Тes
(С)
Комфортность P
(гПа)
Po
(гПа)
Тmin
(С)
Tmax
(С)
R
(мм)
R24
(мм)
S
(см)
18 17.03 СЗ 4 20 км 5/5 600 м
[Cu med, cong]
+35.3 +22.2 47 +44 +49 опасность
перегрева
1009.7 988.6
21 17.03 СЗ 2 20 км 1/1 600 м
[Cu med, cong]
+35.0 +22.6 49 +45 +45 опасность
перегрева
1007.6 986.5
00 18.03 ЮВ 1 20 км ясно +29.4 +25.3 79 +43 +43 опасность
перегрева
1010.1 988.8 +35.8
03 18.03 СЗ 4 20 км ясно +28.4 +25.7 85 +42 +42 опасность
перегрева
1012.0 990.8
06 18.03 С 1 20 км ясно +27.7 +25.0 85 +40 +40 очень
душно
1010.6 989.5
09 18.03 СЗ 2 20 км 1/1 600 м
[Cu med, cong]
+27.4 +25.1 87 +39 +39 очень
душно
1010.7 989.6
12 18.03 СЗ 3 20 км ясно +31.1 +26.3 76 +47 +53 опасность
перегрева
1013.3 992.1 +27.2
15 18.03 СЗ 4 20 км 4/0 600 м
[]
+35.2 +25.0 56 +49 +59 опасность
перегрева
1013.2 992.1
18 18.03 Ю 4 5000 м гроза без осадков 9/8 600 м
[Cb calv Ac trans]
+30.6 +25.1 73 +44 +46 опасность
перегрева
1010.7 989.4
21 18.03 штиль 0 20 км 5/3 600 м
[Cu med, cong Ac trans]
+28.9 +26.0 84 +43 +44 опасность
перегрева
1008.9 987.6
00 19.03 В 1 20 км ясно +27.8 +25.9 89 +41 +41 опасность
перегрева
1010.0 988.8 +35.2 5
03 19.03 СЗ 2 20 км ясно +27.3 +25.6 90 +40 +40 очень
душно
1010.8 989.7
06 19.03 СЗ 4 20 км 1/1 100 м
[Cu med, cong]
+26.7 +25.0 90 +38 +38 очень
душно
1010.8 989.5
09 19.03 СЗ 2 20 км ясно +26.2 +24.5 90 +37 +37 очень
душно
1010.1 988.8
12 19.03 СЗ 2 20 км ясно +29.8 +25.0 75 +43 +49 опасность
перегрева
1011.6 990.3 +26.1 5
15 19.03 СЗ 3 20 км 3/3 600 м
[Cu med, cong]
+35.0 +25.1 57 +49 +60 опасность
перегрева
1010.7 989.6
18 19.03 СЗ 4 20 км 5/5 600 м
[Cu med, cong]
+36.7 +21.6 42 +45 +50 опасность
перегрева
1008.0 987.0
21 19.03 С 2 20 км 5/5 600 м
[Cu med, cong]
+34.5 +24.7 57 +48 +48 опасность
перегрева
1006.8 985.7
00 20.03 В 2 20 км 1/1 600 м
[Cu med, cong]
+29.5 +25.1 77 +43 +43 опасность
перегрева
1008.7 987.5 +36.8
03 20.03 штиль 0 20 км ясно +28.4 +25.7 85 +42 +42 опасность
перегрева
1010.3 989.3
06 20.03 СЗ 2 20 км ясно +28.2 +25.1 83 +41 +41 опасность
перегрева
1009.2 988.2
09 20.03 СЗ 4 20 км 5/5 600 м
[Cu med, cong]
+27.8 +25.7 88 +41 +41 опасность
перегрева
1009.9 988.8
12 20.03 С 3 20 км 6/1 600 м
[Cu hum Ac trans]
+29.2 +25.7 81 +43 +47 опасность
перегрева
1011.9 990.6 +27.7
15 20.03 СВ 3 20 км 6/1 600 м
[Cu hum Ac trans]
+30.8 +24.8 70 +44 +53 опасность
перегрева
1012.9 991.7
18 20.03 З 5 20 км 3/3 600 м
[Cu med, cong]
+35.7 +22.9 48 +46 +51 опасность
перегрева
1008.1 987.1
21 20.03 СЗ 2 20 км 3/3 600 м
[Cu med, cong]
+34.7 +24.9 57 +48 +49 опасность
перегрева
1007.2 986.1
00 21.03 В 2 20 км гроза без осадков 8/6 600 м
[Cb calv Ac trans]
+29.3 +26.0 82 +44 +44 опасность
перегрева
1010.8 989.5 +36.2
03 21.03 В 3 8000 м слаб. ливневой дождь, в посл. час гроза 10/5 100 м
[Cu med, cong As op]
+26.4 +24.5 89 +37 +37 очень
душно
1013.3 992.0
06 21.03 СЗ 4 20 км в посл. час дождь {гроза} 9/1 600 м
[Cu med, cong Ac trans]
+26.1 +24.2 89 +36 +36 очень
душно
1010.6 989.5 18
12 21.03 20 км н/о +26.9 +24.2 85 +37 +38 очень
душно
1013.6 992.2 +26.0 18
00 22.03 ЮВ 2 20 км 6/6 1000 м
[Cu hum]
+26.3 +23.2 83 +35 +35 очень
душно
1012.3 990.9 +30.1
03 22.03 штиль 0 20 км ясно +25.2 +23.3 89 +34 +34 очень
душно
1012.9 991.5
09 22.03 штиль 0 20 км ясно +24.5 +23.0 91 +32 +32 очень
душно
1011.5 990.1
12 22.03 Ю 3 20 км 10/10 100 м
[Sc]
+26.4 +24.1 87 +37 +37 очень
душно
1014.4 992.8 +24.5 0.0
15 22.03 20 км н/о +29.2 +23.8 73 +40 +42 очень
душно
1014.8 993.3
18 22.03 ЮВ 4 20 км 6/6 600 м
[Cu med, cong]
+30.1 +22.9 65 +40 +44 очень
душно
1012.3 990.9
21 22.03 Ю 3 20 км 6/4 600 м
[Cu med, cong Ac trans]
+29.3 +23.8 72 +40 +40 очень
душно
1011.1 989.7
00 23.03 Ю 2 20 км 6/1 600 м
[Cu med, cong Ac trans]
+28.4 +23.9 77 +39 +39 очень
душно
1012.5 991.1 +30.6
03 23.03 З 1 20 км 5/1 600 м
[Cu med, cong Ac trans]
+26.2 +24.1 88 +36 +36 очень
душно
1013.9 992.5
06 23.03 ЮВ 2 20 км ясно +25.4 +23.9 91 +35 +35 очень
душно
1012.7 991.3
09 23.03 ЮВ 1 20 км ясно +24.9 +23.4 91 +33 +33 очень
душно
1013.3 991.8
12 23.03 Ю 2 20 км 6/6 100 м
[Frnb]
+28.1 +25.2 84 +41 +43 опасность
перегрева
1014.7 993.3 +24.9
15 23.03 20 км н/о +31.0 +23.8 66 +43 +47 опасность
перегрева
1014.4 993.1
18 23.03 ЮВ 3 20 км 5/5 600 м
[Cu med, cong]
+33.8 +22.8 53 +44 +50 опасность
перегрева
1011.3 990.1
21 23.03 Ю 4 20 км 4/4 600 м
[Cu med, cong]
+33.5 +22.4 52 +43 +43 опасность
перегрева
1009.8 988.6
00 24.03 ЮВ 2 20 км ясно +29.1 +24.1 74 +40 +40 очень
душно
1011.6 990.3 +34.7
03 24.03 ЮЗ 1 20 км 4/0
[Ac trans]
+28.4 +24.7 80 +40 +40 очень
душно
1012.4 991.2
06 24.03 СЗ 1 20 км 5/0
[Ac trans]
+27.6 +25.1 86 +40 +40 очень
душно
1011.2 990.1
09 24.03 ЮЗ 1 20 км 5/0
[Ac trans]
+26.8 +23.9 84 +37 +37 очень
душно
1011.1 989.9
12 24.03 штиль 0 20 км ясно +31.0 +24.0 66 +43 +51 опасность
перегрева
1013.0 991.8 +25.6
15 24.03 В 1 20 км ясно +35.0 +23.2 51 +46 +68 опасность
перегрева
1013.1 992.0

 

Местоположение метеостанции Куяба (Мату-Гросу, Бразилия): широта -15.65 долгота -56.10 высота над уровнем моря 187 м.

В архиве по умолчанию представлена погода в Куябе за последнюю неделю. Архивные данные за месяц целиком и за предыдущие месяцы, начиная с января 2011 года, Вы можете получить, выбрав интересующий диапазон дат из раскрывающегося списка и нажав кнопку "Ввод!".


*Определитесь, кто Вы:
робот инопланетянин человек

Внимание! Время в таблицах - всемирное. Для получения местного времени необходимо прибавить поправку, которая равна -3 ч.

Смотрите также архив погоды в соседних городах и на ближайших метеорологических станциях:

Погода в Куябе (Мату-Гросу, Бразилия) (3 км)
Погода в Кампо-Верде (Мату-Гросу, Бразилия) (105 км)
Погода в Порто-Эстреле (Мату-Гросу, Бразилия) (126 км)
Погода в Диамантину (Мату-Гросу, Бразилия) (144 км)
Погода в Касересе (Мату-Гросу, Бразилия) (175 км)
Погода в Касерисе (Мату-Гросу, Бразилия) (176 км)
Погода в Тангара-да-Серре (Мату-Гросу, Бразилия) (181 км)
Погода в Пошореу (Мату-Гросу, Бразилия) (185 км)
Погода в Рондонополисе (Мату-Гросу, Бразилия) (186 км)
Погода в Салту-ду-Сеу (Мату-Гросу, Бразилия) (225 км)

Пояснения к столбцам:

Ветер - указаны скорость ветра в м/с - средняя за 10 мин, порывы в срок и между сроками (в фигурных скобках) и направление, откуда дует ветер: С - северный, СВ - северо-восточный, В - восточный, ЮВ - юго-восточный, Ю - южный, ЮЗ - юго-западный, З - западный, СЗ - северо-западный.
Видимость - горизонтальная дальность видимости в метрах или километрах. При видимости от 1 до 10 км при отсутствии осадков обычно наблюдается дымка, при ухудшении видимости до 1 км и менее - туман. В сухую погоду видимость может ухудшаться дымом, пылью или мглою.
Явления - указаны атмосферные явления, наблюдавшиеся в срок или в последний час перед сроком; фигурными скобками обозначены явления, наблюдавшиеся между сроками (за 1-3 часа до срока); квадратными скобками обозначены град или гололедные отложения с указанием их диаметра в мм.
Облачность - указаны через наклонную черту общая и нижняя облачность в баллах и высота нижней границы облаков в метрах; квадратными скобками обозначены формы облаков: Ci - перистые, Cs - перисто-слоистые, Cc - перисто-кучевые, Ac - высококучевые, As - высокослоистые, Sc - слоисто-кучевые, Ns - слоисто-дождевые, Cu - кучевые, Cb - кучево-дождевые. Подробнее классификацию облаков см. в Атласе облаков (PDF).
T - Температура воздуха - температура, измеренная на высоте 2 м над землей.
Td - Температура точки росы - температура, при понижении до которой содержащийся в воздухе водяной пар достигнет насыщения.
f - Относительная влажность воздуха - влажноcть воздуха, измеренная на высоте 2 м над землей.
Te - Эффективная температура - температура, которую ощущает одетый по сезону человек в тени. Характеристика душности погоды. При расчете учитывается влияние влажности воздуха и скорости ветра на теплоощущения человека.
Tes - Эффективная температура на солнце - температура, которую ощущает человек, с поправкой на солнечный нагрев. Характеристика знойности погоды. Зависит от высоты солнца над горизонтом, облачности и скорости ветра. Ночью, в пасмурную погоду, а также при ветре 12 м/с и более поправка равна нулю.
P - Атмосферное давление - приведенное к уровню моря атмосферное давление.
Po - Атмосферное давление - измеренное на уровне метеостанции атмосферное давление.
Tmin - Минимальная температура - минимум температуры воздуха на высоте 2 м над землей.
Tmax - Максимальная температура - максимум температуры воздуха на высоте 2 м над землей.
R - Количество осадков - Количество выпавших осадков за период времени, мм. При наведении курсора мыши на число - период времени, за который выпало указанное количество осадков.
R24 - Количество осадков - Количество выпавших осадков за 24 часа, мм.
S - Снежный покров - Высота снежного покрова, см. При наведении курсора мыши на число - состояние снежного покрова и степень покрытия местности в баллах.